sat.trackr.live / text

‹ back to catalog

STARLINK-4351

NORAD 53193 · 2022-084E

PAYLOAD ACTIVE UNKNOWN

§ Identity

Operator
Country
US
Launch date
2022-07-22
Launch site
AFWTR
Launch vehicle
Mass (kg)
RCS (m²)

Purposes: comms

External: N2YO · Heavens-Above · Gunter

§ Orbital elements

Epoch: 2026-09-19T10:24:23.874624Z

Period
93.91 min
Inclination
97.2830°
Eccentricity
0.0001615
Mean motion
15.33429784 rev/d
Perigee alt
464.5 km
Apogee alt
466.7 km
Semi-major
6,843.7 km
B*
-1.4478e-5
RAAN
317.2626°
Arg perigee
94.0445°
Mean anomaly
266.0983°
Rev number
22,954

§ Raw data

STARLINK-43511 53193U 22084E   26262.43360966 -.00000542  00000+0 -14478-4 0  99922 53193  97.2830 317.2626 0001615  94.0445 266.0983 15.33429784229540

JSON: /api/v1/satellites/53193 · /tle

For live sub-satellite position, see the globe view (requires WebGL).

§ Visibility from observer

Set your observer location to see the next 7 days of passes ≥ 10°. The values pass through the URL so the page stays shareable.

No JS? Fill the form by hand. The geolocation button needs JavaScript.